When you browse on this site, cookies collect data to enhance your experience and personalize the content and advertising you see.
Visit our Privacy Policy to learn more. By continuing to use the site, you agree to this use of cookies and data.
  • In Schweiz
  • Länderverzeichnis
  • Für 7 Tage
  • Wassertemperatur
  • Wetterkarte
  • Widgets
  • user-avatar
    Anmelden

    Stündliche Wetter Hartford

    Heute, 12 Dezember, Donnerstag

    Zeit Temperatur Niederschläge Wind Luftdruck Luftfeuchtigkeit
    00:00 +1°C° 0 mm 3 m/S 746 mmHg 89%
    01:00 +1°C° 0 mm 3 m/S 745 mmHg 88%
    02:00 +1°C° 0 mm 3 m/S 744 mmHg 88%
    03:00 +1°C° 0 mm 3 m/S 744 mmHg 88%
    04:00 0°C° 0 mm 4 m/S 743 mmHg 87%
    05:00 +1°C° 0 mm 4 m/S 741 mmHg 86%
    06:00 +1°C° 0 mm 4 m/S 741 mmHg 86%
    07:00 +1°C° 0.2 mm 5 m/S 739 mmHg 87%
    08:00 +2°C° 0.2 mm 6 m/S 738 mmHg 89%
    09:00 +3°C° 0.2 mm 6 m/S 737 mmHg 90%
    10:00 +3°C° 0.1 mm 6 m/S 735 mmHg 91%
    11:00 +3°C° 0.1 mm 5 m/S 734 mmHg 91%
    12:00 +4°C° 0 mm 6 m/S 733 mmHg 91%
    13:00 +5°C° 1.8 mm 5 m/S 731 mmHg 93%
    14:00 +5°C° 1.8 mm 4 m/S 730 mmHg 95%
    15:00 +5°C° 1.8 mm 3 m/S 729 mmHg 97%
    16:00 +5°C° 0.7 mm 3 m/S 728 mmHg 95%
    17:00 +5°C° 0.7 mm 4 m/S 727 mmHg 94%
    18:00 +5°C° 0.7 mm 4 m/S 727 mmHg 92%
    19:00 +5°C° 0.1 mm 4 m/S 726 mmHg 92%
    20:00 +5°C° 0.1 mm 3 m/S 725 mmHg 92%
    21:00 +5°C° 0.1 mm 3 m/S 724 mmHg 92%
    22:00 +4°C° 0.1 mm 3 m/S 724 mmHg 92%
    23:00 +5°C° 0.1 mm 2 m/S 723 mmHg 93%

    Morgen, 13 Dezember, Freitag

    Zeit Temperatur Niederschläge Wind Luftdruck Luftfeuchtigkeit
    00:00 +5°C° 0.1 mm 2 m/S 723 mmHg 94%
    01:00 +4°C° 0.7 mm 4 m/S 723 mmHg 92%
    02:00 +4°C° 0.7 mm 6 m/S 724 mmHg 91%
    03:00 +4°C° 0.7 mm 7 m/S 724 mmHg 89%
    04:00 +4°C° 0.4 mm 8 m/S 725 mmHg 87%
    05:00 +4°C° 0.4 mm 8 m/S 725 mmHg 85%
    06:00 +4°C° 0.4 mm 8 m/S 726 mmHg 83%
    07:00 +4°C° 0.1 mm 8 m/S 727 mmHg 83%
    08:00 +4°C° 0.1 mm 8 m/S 727 mmHg 83%
    09:00 +4°C° 0.1 mm 7 m/S 728 mmHg 83%
    10:00 +4°C° 0.2 mm 7 m/S 728 mmHg 83%
    11:00 +5°C° 0.2 mm 6 m/S 728 mmHg 83%
    12:00 +5°C° 0.2 mm 6 m/S 729 mmHg 83%
    13:00 +5°C° 0.1 mm 6 m/S 729 mmHg 81%
    14:00 +5°C° 0.1 mm 6 m/S 729 mmHg 80%
    15:00 +5°C° 0.1 mm 6 m/S 730 mmHg 79%
    16:00 +5°C° 0.1 mm 7 m/S 730 mmHg 79%
    17:00 +5°C° 0.1 mm 7 m/S 731 mmHg 80%
    18:00 +5°C° 0.1 mm 7 m/S 731 mmHg 81%
    19:00 +4°C° 0.1 mm 7 m/S 731 mmHg 80%
    20:00 +4°C° 0.1 mm 6 m/S 731 mmHg 80%
    21:00 +3°C° 0.1 mm 5 m/S 731 mmHg 80%
    22:00 +3°C° 0 mm 6 m/S 731 mmHg 81%
    23:00 +2°C° 0 mm 6 m/S 731 mmHg 82%

    übermorgen, 14 Dezember, Samstag

    Zeit Temperatur Niederschläge Wind Luftdruck Luftfeuchtigkeit
    00:00 +2°C° 0 mm 6 m/S 731 mmHg 83%
    01:00 +2°C° 0.1 mm 6 m/S 731 mmHg 83%
    02:00 +3°C° 0.1 mm 6 m/S 731 mmHg 83%
    03:00 +3°C° 0.1 mm 6 m/S 731 mmHg 83%
    04:00 +3°C° 0.7 mm 6 m/S 732 mmHg 78%
    05:00 +2°C° 0.7 mm 7 m/S 732 mmHg 74%
    06:00 +1°C° 0.7 mm 8 m/S 733 mmHg 69%
    07:00 +1°C° 0 mm 8 m/S 733 mmHg 69%
    08:00 +1°C° 0 mm 8 m/S 734 mmHg 68%
    09:00 0°C° 0 mm 7 m/S 735 mmHg 67%
    10:00 +1°C° 0.1 mm 8 m/S 735 mmHg 65%
    11:00 +1°C° 0.1 mm 9 m/S 735 mmHg 64%
    12:00 +1°C° 0.1 mm 9 m/S 736 mmHg 62%
    13:00 +1°C° 0.1 mm 8 m/S 736 mmHg 62%
    14:00 +2°C° 0.1 mm 7 m/S 736 mmHg 62%
    15:00 +2°C° 0.1 mm 7 m/S 736 mmHg 63%
    16:00 +1°C° 0 mm 5 m/S 736 mmHg 65%
    17:00 0°C° 0 mm 4 m/S 736 mmHg 67%
    18:00 +1°C° 0 mm 3 m/S 736 mmHg 70%
    19:00 0°C° 0.7 mm 4 m/S 735 mmHg 78%
    20:00 0°C° 0.7 mm 5 m/S 734 mmHg 87%
    21:00 -1°C° 0.7 mm 6 m/S 733 mmHg 96%
    22:00 -1°C° 0.3 mm 6 m/S 733 mmHg 92%
    23:00 +1°C° 0.3 mm 6 m/S 733 mmHg 89%

    15 Dezember, Sonntag

    Zeit Temperatur Niederschläge Wind Luftdruck Luftfeuchtigkeit
    00:00 +1°C° 0.3 mm 6 m/S 732 mmHg 86%
    01:00 -1°C° 0.1 mm 6 m/S 733 mmHg 86%
    02:00 0°C° 0.1 mm 5 m/S 734 mmHg 86%
    03:00 0°C° 0.1 mm 5 m/S 736 mmHg 85%
    04:00 -1°C° 0 mm 4 m/S 736 mmHg 85%
    05:00 -1°C° 0 mm 4 m/S 737 mmHg 85%
    06:00 0°C° 0 mm 3 m/S 738 mmHg 85%
    07:00 -1°C° 0.5 mm 4 m/S 738 mmHg 88%
    08:00 0°C° 0.5 mm 4 m/S 738 mmHg 91%
    09:00 +1°C° 0.5 mm 5 m/S 738 mmHg 94%
    10:00 +1°C° 0.2 mm 5 m/S 738 mmHg 90%
    11:00 +2°C° 0.2 mm 6 m/S 739 mmHg 86%
    12:00 +3°C° 0.2 mm 6 m/S 739 mmHg 81%
    13:00 +3°C° 0.1 mm 6 m/S 739 mmHg 83%
    14:00 +2°C° 0.1 mm 5 m/S 738 mmHg 84%
    15:00 +2°C° 0.1 mm 5 m/S 738 mmHg 85%
    16:00 +2°C° 0.1 mm 5 m/S 739 mmHg 84%
    17:00 +2°C° 0.1 mm 5 m/S 739 mmHg 83%
    18:00 +1°C° 0.1 mm 5 m/S 739 mmHg 82%
    19:00 +1°C° 0.1 mm 5 m/S 740 mmHg 83%
    20:00 +1°C° 0.1 mm 5 m/S 740 mmHg 83%
    21:00 +1°C° 0.1 mm 4 m/S 741 mmHg 84%
    22:00 +1°C° 0.1 mm 4 m/S 741 mmHg 84%
    23:00 +1°C° 0.1 mm 4 m/S 742 mmHg 84%

    16 Dezember, Montag

    Zeit Temperatur Niederschläge Wind Luftdruck Luftfeuchtigkeit
    00:00 +1°C° 0.1 mm 4 m/S 742 mmHg 84%
    01:00 +1°C° 0 mm 4 m/S 742 mmHg 84%
    02:00 +1°C° 0 mm 4 m/S 742 mmHg 84%
    03:00 +1°C° 0 mm 4 m/S 743 mmHg 84%
    04:00 0°C° 0 mm 4 m/S 743 mmHg 85%
    05:00 0°C° 0 mm 4 m/S 743 mmHg 86%
    06:00 0°C° 0 mm 4 m/S 743 mmHg 87%
    07:00 0°C° 0 mm 4 m/S 744 mmHg 87%
    08:00 0°C° 0 mm 4 m/S 744 mmHg 87%
    09:00 0°C° 0 mm 4 m/S 745 mmHg 87%
    10:00 +1°C° 0 mm 4 m/S 745 mmHg 86%
    11:00 +3°C° 0 mm 4 m/S 745 mmHg 84%
    12:00 +4°C° 0 mm 3 m/S 745 mmHg 83%
    13:00 +4°C° 0 mm 3 m/S 745 mmHg 84%
    14:00 +3°C° 0 mm 3 m/S 745 mmHg 86%
    15:00 +3°C° 0 mm 3 m/S 745 mmHg 87%
    16:00 +3°C° 0 mm 3 m/S 745 mmHg 88%
    17:00 +3°C° 0 mm 2 m/S 746 mmHg 89%
    18:00 +3°C° 0 mm 2 m/S 746 mmHg 91%
    19:00 +3°C° 0 mm 2 m/S 746 mmHg 91%
    20:00 +3°C° 0 mm 1 m/S 747 mmHg 91%
    21:00 +3°C° 0 mm 1 m/S 747 mmHg 91%
    22:00 +3°C° 0 mm 1 m/S 747 mmHg 91%
    23:00 +3°C° 0 mm 1 m/S 747 mmHg 91%

    17 Dezember, Dienstag

    Zeit Temperatur Niederschläge Wind Luftdruck Luftfeuchtigkeit
    00:00 +3°C° 0 mm 1 m/S 747 mmHg 91%
    01:00 +2°C° 0 mm 0 m/S 747 mmHg 91%
    02:00 +2°C° 0 mm 0 m/S 748 mmHg 91%
    03:00 +2°C° 0 mm 0 m/S 748 mmHg 91%
    04:00 +2°C° 0 mm 0 m/S 748 mmHg 91%
    05:00 +2°C° 0 mm 0 m/S 748 mmHg 92%
    06:00 +2°C° 0 mm 0 m/S 748 mmHg 92%
    07:00 +2°C° 0 mm 0 m/S 749 mmHg 92%
    08:00 +3°C° 0 mm 1 m/S 749 mmHg 92%
    09:00 +3°C° 0 mm 1 m/S 750 mmHg 92%
    10:00 +3°C° 0 mm 1 m/S 750 mmHg 90%
    11:00 +3°C° 0 mm 0 m/S 750 mmHg 88%
    12:00 +4°C° 0 mm 0 m/S 750 mmHg 86%
    13:00 +3°C° 0 mm 0 m/S 751 mmHg 87%
    14:00 +3°C° 0 mm 0 m/S 751 mmHg 88%
    15:00 +3°C° 0 mm 0 m/S 751 mmHg 89%
    16:00 +3°C° 0 mm 1 m/S 752 mmHg 90%
    17:00 +3°C° 0 mm 1 m/S 752 mmHg 91%
    18:00 +2°C° 0 mm 1 m/S 753 mmHg 92%
    19:00 +1°C° 0 mm 2 m/S 753 mmHg 92%
    20:00 +1°C° 0 mm 2 m/S 754 mmHg 92%
    21:00 +1°C° 0 mm 2 m/S 754 mmHg 92%
    22:00 +1°C° 0 mm 2 m/S 754 mmHg 92%
    23:00 0°C° 0 mm 3 m/S 755 mmHg 92%
    Mehr zeigen